Weather in Alykel'

Russia / Krasnoyarsk Krai     69°22′47″N   87°23′15″E
temp.,
°C
wind,
m/s
gust,
m/s
humid.,
%
clouds,
%
prec.,
mm/h
press.,
hPa
HPBL,
m
21 june, mon
mon2101:00+5n5997100 0.9 1004285
04:00+4n71298100 2.2 1003296
07:00+4n61097100 9.0 1003309
10:00+4nnw4696100 1.3 1005308
13:00+5nnw4494100 1.4 1007433
16:00+4nnw4691100 0.1 1009475
19:00+3n5891100 0.1 1011390
22:00+3n5892100 0.1 1011370
22 june, tue
tue2201:00+3n51092100 0.3 1010367
04:00+3n5991100 0.1 1010377
07:00+3n4689100 0.1 1011368
10:00+3nnw4589100 0.0 1012455
13:00+4nnw4490100 0.0 1013480
16:00+4nnw4594100 0.1 1014463
19:00+5n5680100 0.1 1014729
22:00+4n5882100 0.0 1014555
23 june, wed
wed2301:00+3n598770 0.1 1014432
04:00+2nnw6990100 0.1 1014477
07:00+2nnw5993100 0.4 1014405
10:00+3nnw5793100 0.4 1014403
13:00+2nnw3595100 1.2 1016451
16:00+3wnw2297100 0.6 1017449
19:00+3w2298100 0.7 1018441
22:00+3wsw2298100 0.0 1018303
24 june, thu
thu2401:00+3wsw1298100 0.0 1018256
04:00+3w2298100 0.0 1018210
07:00+3nnw1298100 0.1 1017142
10:00+4nnw2397100 0.0 1017279
13:00+6n338891 0.0 1016403
16:00+10nne457114 0.0 1014661
19:00+10nne45674 0.0 1013566
22:00+9n367554 0.0 1013241
25 june, fri
fri2501:00+7n338683 0.0 101248
04:00+7n3684100 0.0 1011119
07:00+9n4672100 0.0 1010245
10:00+12nne4556100 0.0 1010476
13:00+14n4448100 0.0 1009631
16:00+16n3444100 0.0 1009854
19:00+16n3447100 0.0 1009672
22:00+14ene0162100 0.0 101011